Wind_Speed
28 28 28 27 29 30 29 28 28 28 28 29 28 27 28 27 25 23 22 24 25 24 24 23 22 22 22 22 21 18 16 15 15 15 15 15 15 17 18 20 22 24 25 26 28 30 30 31 31 32 32 32 33 33 34 35 36 37 38 39 40 41 42
28 29 29 28 29 29 29 28 27 28 30 30 28 28 29 27 26 24 24 25 24 24 23 22 22 22 23 23 21 17 14 14 14 14 14 14 16 17 19 21 23 24 25 27 29 30 31 32 32 32 32 32 33 34 35 37 38 38 38 38 40 40 41
29 30 28 28 28 29 29 28 28 29 31 30 27 28 29 27 25 23 23 23 22 21 21 22 23 24 24 23 19 15 13 12 13 13 14 15 17 19 20 21 23 24 26 27 29 30 31 31 32 32 32 33 33 34 35 36 38 39 39 39 39 39 40
30 30 28 28 29 29 29 28 28 29 28 27 26 27 29 27 24 22 21 21 20 20 21 23 24 24 23 19 15 13 11 12 12 13 15 16 18 19 20 21 23 24 26 27 29 30 30 31 31 32 32 33 34 35 36 37 37 38 39 40 40 41 43
29 29 28 29 29 28 29 28 27 24 22 23 25 27 29 28 26 24 21 19 18 21 23 24 24 21 18 13 11 10 10 12 13 14 16 17 18 19 20 22 23 25 26 27 28 29 29 30 31 32 32 33 35 37 38 39 39 38 39 40 42 44 46
28 28 29 29 28 27 27 27 24 23 22 24 27 29 29 29 26 22 17 16 18 21 23 22 20 16 12 10 9 10 11 13 14 15 16 17 18 20 21 22 24 25 26 27 28 28 29 30 31 31 32 34 36 37 37 38 39 40 40 42 44 46 48
26 27 28 28 28 27 27 27 25 24 24 25 27 29 29 27 22 17 15 16 19 20 20 18 15 12 10 9 10 11 13 13 14 15 16 18 19 21 22 23 25 26 26 27 27 28 29 30 30 30 32 33 34 35 36 36 38 40 41 43 45 47 48
26 26 26 27 28 28 28 28 27 27 26 25 24 25 25 21 18 16 16 17 19 20 18 16 13 11 10 10 11 13 13 13 14 15 17 19 20 21 23 24 25 26 26 27 27 28 29 29 29 30 31 32 33 34 35 36 38 40 42 44 46 48 49
25 25 24 25 27 27 27 27 26 25 24 23 23 23 21 17 16 15 16 18 20 20 17 14 12 10 11 12 12 12 12 14 15 17 18 20 21 23 24 25 25 26 26 26 27 28 29 29 29 30 30 31 33 34 35 37 39 41 43 45 47 49 50
23 23 23 23 24 25 25 25 24 22 21 21 22 21 17 15 14 15 19 21 20 17 15 12 11 11 12 12 11 12 13 15 16 18 19 21 22 23 24 25 26 26 26 26 27 28 28 28 28 28 29 29 31 33 35 37 39 41 43 45 47 49 51
21 21 21 21 22 21 21 21 21 20 20 20 20 18 14 12 13 18 21 20 17 15 13 12 12 12 12 11 12 13 14 16 17 19 20 22 23 24 25 25 26 26 26 26 27 28 28 27 27 27 27 29 30 32 34 36 39 41 43 45 47 49 50
20 20 19 19 19 18 18 20 20 19 19 19 18 15 13 13 16 19 19 16 14 13 13 12 12 12 11 12 13 14 15 17 18 20 21 22 23 24 25 26 26 26 26 27 27 28 27 27 26 26 27 29 30 32 34 36 38 40 43 45 48 49 51
18 18 18 17 17 16 17 19 20 18 16 17 17 15 14 16 18 17 14 12 13 12 12 12 12 11 12 13 14 15 17 18 20 21 22 23 24 25 26 26 27 26 26 27 27 27 27 26 26 26 27 29 31 32 34 36 38 40 42 45 47 49 51
16 17 17 16 15 16 16 16 16 14 13 14 15 16 16 17 15 13 12 12 12 11 12 12 11 12 13 14 15 17 18 20 21 22 23 24 25 26 27 27 27 26 26 27 27 27 27 26 26 27 28 29 31 32 34 36 38 40 42 44 47 49 51
15 15 14 14 13 14 14 13 12 12 13 14 15 15 14 13 11 11 11 11 10 11 11 12 12 13 14 16 17 18 20 21 23 24 24 25 26 26 27 27 26 26 26 27 27 27 26 26 26 27 28 30 31 33 34 36 38 40 42 45 47 49 51
12 11 10 10 11 12 12 13 13 13 13 13 12 12 11 10 10 10 10 10 10 11 12 13 14 15 16 17 19 20 22 23 24 25 26 26 27 27 27 27 27 27 27 27 27 27 27 26 26 27 29 30 31 33 34 36 37 40 42 44 46 48 50
10 10 11 11 11 11 11 12 12 12 12 11 11 10 10 11 10 10 10 11 12 12 13 14 15 16 18 19 21 22 23 24 25 26 27 27 27 28 28 28 27 27 27 27 27 27 27 27 27 28 29 30 31 33 34 35 37 39 41 43 45 47 49
11 12 13 12 11 11 11 11 10 10 9 9 10 11 11 11 11 11 12 13 14 15 16 16 17 19 20 21 22 23 23 24 26 27 28 28 28 28 28 28 28 28 28 28 28 27 27 27 27 28 29 30 31 32 34 35 36 39 41 43 44 46 48
12 12 13 12 11 10 10 10 9 8 8 9 10 12 12 12 13 14 14 15 16 17 17 18 19 20 22 23 23 23 24 25 27 28 28 28 29 29 29 29 29 28 28 28 28 28 28 27 28 28 29 30 31 32 33 35 36 38 40 42 43 45 46
12 13 13 12 10 10 10 10 9 9 9 10 12 13 13 14 15 15 16 17 18 19 19 19 20 22 23 24 24 24 25 26 27 28 29 29 30 30 31 31 30 29 29 28 28 28 28 27 28 28 29 30 31 32 33 34 36 37 39 40 42 43 44
12 13 14 13 11 11 11 11 10 9 10 11 12 14 14 15 16 17 18 19 19 20 21 21 22 23 24 24 25 26 27 27 28 29 30 30 31 31 32 32 31 30 29 28 28 28 27 27 28 29 29 29 30 31 32 34 35 36 37 39 40 40 41
12 13 14 14 13 12 12 12 12 11 11 12 13 14 15 16 17 18 19 20 20 21 22 23 24 25 25 26 26 27 28 29 29 30 31 31 32 32 32 32 31 30 29 28 28 27 27 27 28 28 28 28 29 31 32 33 34 35 36 37 38 38 39
12 13 13 14 14 14 14 14 14 13 13 13 14 15 16 17 18 19 20 21 21 22 23 25 26 26 27 27 28 28 29 30 31 31 32 32 33 32 32 32 31 30 29 28 28 27 27 27 28 28 28 28 29 30 31 33 33 34 35 36 36 36 37
14 14 13 13 14 15 15 15 14 14 14 15 16 16 17 18 19 20 21 21 22 23 24 25 26 27 28 29 29 30 30 31 32 33 33 33 33 33 33 32 31 30 29 29 28 27 27 27 28 27 27 28 29 30 31 32 32 33 34 34 34 35 35
17 16 15 14 15 15 15 15 16 16 16 17 18 18 19 20 20 21 22 22 23 23 24 25 26 27 28 29 30 31 31 33 34 34 35 34 33 34 34 33 30 29 29 29 29 27 27 27 27 27 27 28 29 30 30 31 31 32 32 33 33 33 35
19 18 17 17 16 16 16 17 17 18 19 19 19 20 20 21 22 23 23 23 24 24 25 26 27 28 29 30 31 32 33 34 35 36 36 34 34 35 35 32 30 29 29 29 28 26 26 27 27 27 28 28 29 30 30 30 31 31 31 32 32 33 34
20 20 20 19 18 18 18 18 19 20 20 20 21 21 22 23 24 24 25 25 25 25 26 28 29 30 30 30 32 34 35 36 37 38 37 34 34 34 32 29 28 29 29 28 27 26 26 26 27 27 28 29 29 29 29 30 30 30 30 32 33 33 33
21 21 21 20 20 19 19 20 20 21 21 22 22 23 24 25 26 26 27 27 26 27 28 29 30 31 32 32 33 36 37 38 41 41 37 33 33 31 28 27 27 28 28 27 26 26 26 26 27 27 28 29 29 29 30 30 30 30 31 32 33 32 32
21 21 21 21 21 21 21 22 22 22 23 23 24 25 26 27 28 29 29 28 28 29 29 31 32 33 33 34 36 38 40 42 44 41 34 31 30 28 26 27 27 27 27 27 26 26 26 27 28 28 29 29 29 30 30 30 31 31 32 33 33 33 33
22 22 22 22 22 23 23 24 24 24 25 25 26 27 28 29 30 31 30 30 30 30 30 31 32 33 33 34 36 39 42 44 42 36 31 29 27 25 25 27 27 27 27 27 26 26 27 28 29 29 29 29 30 30 31 31 31 32 32 33 33 34 33
24 24 24 24 25 26 27 27 27 27 27 27 28 29 30 31 31 32 31 31 30 30 30 30 31 32 32 32 33 35 38 40 36 30 28 27 25 25 26 26 26 27 27 26 26 27 27 28 29 30 29 30 30 31 31 31 32 32 33 34 34 34 34
27 27 28 28 29 30 30 30 30 30 29 29 30 31 32 33 33 32 32 31 30 29 29 30 31 31 31 32 32 31 31 32 30 27 26 25 24 25 25 25 26 27 26 27 27 27 28 29 30 30 30 30 31 31 32 32 32 33 34 34 35 35 35
29 29 28 28 29 30 30 30 30 31 31 31 32 33 33 34 34 34 34 31 29 28 29 29 30 30 31 32 32 28 26 28 27 26 25 25 25 25 25 25 26 27 27 27 27 28 29 29 30 30 30 31 31 32 32 33 33 34 34 35 35 35 35
27 26 25 25 27 27 28 28 29 30 31 32 32 32 33 32 32 32 31 29 28 28 29 29 29 30 30 31 29 26 26 26 26 25 25 25 24 24 25 26 27 27 27 27 28 29 29 30 30 30 30 31 31 32 32 33 33 34 34 35 36 36 36
25 25 25 25 26 26 27 27 27 29 30 31 31 32 33 33 31 30 29 29 29 29 29 29 30 30 29 29 29 27 26 26 25 25 25 24 24 25 25 26 27 27 27 28 28 29 30 30 30 30 30 31 31 32 32 33 33 34 34 35 36 37 37
25 26 27 27 26 27 28 28 27 28 28 30 31 32 33 34 33 30 29 30 30 30 30 30 31 30 30 30 29 28 26 25 25 25 25 25 25 25 26 27 27 27 28 28 29 30 30 30 31 31 31 31 31 32 32 33 33 34 34 35 36 37 37
26 27 28 29 28 28 29 29 29 28 29 30 31 31 32 32 31 30 30 30 31 31 31 31 32 31 30 30 29 27 26 26 26 26 26 25 25 26 27 27 28 28 28 29 30 30 31 31 31 31 31 32 32 32 32 33 33 34 34 35 36 36 37
Wind_Direction
261 258 258 261 262 262 262 262 263 262 259 256 255 258 262 261 262 262 260 262 265 264 263 261 261 262 262 263 261 257 257 258 261 264 269 277 285 293 296 298 301 304 308 311 313 314 316 318 318 318 319 320 322 322 324 326 327 328 328 328 328 327 326
257 255 257 260 261 261 261 260 262 263 261 258 258 261 262 259 259 261 262 265 267 265 264 262 261 262 263 261 256 251 251 255 260 265 273 282 289 293 296 300 305 309 311 313 314 316 317 318 318 320 322 323 324 326 328 330 330 331 330 330 329 326 324
254 253 257 261 260 259 258 258 260 262 263 262 260 260 259 257 257 261 265 269 269 269 268 265 263 262 261 257 251 246 247 254 261 268 276 284 289 294 300 306 310 311 313 314 315 316 316 318 320 322 323 324 326 329 331 332 332 331 330 328 325 323 321
253 253 259 264 261 257 256 258 260 261 264 261 255 254 254 253 257 263 266 268 269 270 268 264 261 258 255 251 245 241 245 254 263 270 278 286 293 301 307 310 311 311 313 313 314 316 317 320 321 322 324 327 330 332 332 332 332 330 328 326 324 324 324
254 255 260 263 262 259 257 259 261 262 260 253 250 252 251 253 260 262 261 266 270 269 265 260 256 252 249 244 238 239 248 258 266 274 284 295 303 308 310 310 310 311 312 313 315 317 319 320 321 322 326 330 332 333 333 332 330 328 327 327 327 327 328
255 256 259 261 263 262 260 260 260 260 258 252 249 250 252 257 261 259 256 263 268 265 261 255 251 246 240 234 235 243 253 262 273 285 297 305 308 309 309 309 310 311 312 314 316 318 319 320 322 325 330 333 333 334 333 331 329 328 329 329 330 330 329
255 256 258 261 262 262 262 261 259 259 261 257 251 251 254 256 254 250 250 257 262 262 260 257 251 240 231 232 240 250 260 272 287 299 304 306 307 307 308 309 310 311 313 315 316 318 319 321 324 329 332 333 333 332 331 330 330 330 330 331 332 332 331
254 256 258 260 260 260 262 263 261 259 259 257 255 254 252 247 242 243 247 250 254 257 257 253 243 231 230 239 249 258 272 287 297 301 303 304 306 307 308 309 310 311 313 314 316 317 319 323 328 331 332 332 331 331 331 331 331 332 332 333 333 333 333
255 256 259 261 261 261 262 263 262 258 254 255 255 251 243 237 239 245 248 249 249 248 244 237 228 226 234 245 257 270 283 292 296 298 301 303 306 307 308 309 309 311 312 313 315 318 322 327 330 331 331 330 331 331 332 332 332 333 335 335 335 335 336
263 263 265 266 264 263 261 260 259 254 253 253 249 242 236 236 242 249 252 249 244 238 230 223 222 229 241 253 266 278 285 291 294 297 301 303 305 306 307 308 308 309 310 312 316 320 325 328 330 330 329 329 330 332 333 333 334 336 337 338 338 339 338
272 271 271 269 267 264 259 258 256 253 255 249 239 237 240 242 247 251 250 243 233 225 220 219 226 238 250 262 271 278 284 290 293 297 300 303 304 305 305 306 307 308 309 313 318 322 326 328 328 327 326 329 331 332 333 334 336 337 339 340 341 341 340
273 273 272 271 268 262 257 257 256 254 250 241 238 248 254 252 250 247 243 235 226 221 222 229 238 248 258 266 272 279 285 290 293 297 300 302 303 303 304 305 305 306 309 315 320 324 326 327 325 324 326 329 331 332 334 335 336 338 340 342 343 342 342
274 276 274 272 268 263 261 260 255 247 240 236 244 258 258 252 249 240 230 225 223 225 230 238 247 256 264 270 276 282 287 291 294 297 300 301 301 301 302 303 303 305 311 317 322 325 326 325 323 324 327 329 330 332 334 335 336 339 342 343 343 343 343
278 280 275 270 268 268 267 258 248 243 243 244 248 251 247 242 239 229 222 223 226 233 239 245 256 264 270 275 280 285 289 293 296 297 298 298 298 299 301 301 303 307 313 319 323 325 324 323 323 325 327 329 331 333 334 336 337 340 343 343 343 344 345
281 279 272 267 266 268 267 258 251 252 254 250 247 248 247 241 236 233 232 233 236 242 247 256 266 271 275 279 283 287 291 294 295 296 296 296 296 298 300 301 304 309 315 320 323 324 323 322 323 325 326 329 331 333 335 336 339 342 343 343 344 345 347
281 271 264 269 271 269 266 263 261 259 257 258 261 265 265 256 249 244 240 242 245 250 258 267 273 276 280 283 286 290 292 294 294 294 294 294 295 298 300 302 305 310 316 320 323 323 322 322 323 324 326 329 332 334 335 336 340 342 342 342 343 345 347
273 264 265 274 275 271 268 267 265 262 265 274 280 278 270 260 254 250 249 253 257 262 269 273 277 280 283 286 288 290 292 293 293 293 293 293 295 298 301 303 306 311 316 320 323 323 322 322 322 324 326 329 333 335 335 337 340 340 340 341 342 344 347
268 265 267 272 272 270 270 270 269 269 272 278 280 276 270 266 266 266 266 268 270 272 275 278 281 284 285 287 288 289 291 292 292 293 292 293 296 299 302 304 307 312 317 321 322 322 321 321 322 323 326 330 333 334 334 336 337 337 338 340 341 344 347
265 265 265 266 265 265 266 267 270 273 275 277 277 275 273 272 273 274 275 277 278 279 281 282 284 286 287 288 289 289 289 291 292 293 293 293 296 300 303 305 308 312 317 320 321 321 321 321 321 322 325 330 332 333 333 335 336 336 338 340 342 345 348
259 261 261 257 253 255 260 264 268 272 274 274 274 273 274 274 275 277 279 281 282 283 282 283 285 288 289 289 288 287 288 290 293 293 293 294 297 300 304 306 309 312 316 319 320 320 320 321 321 322 326 330 332 332 333 334 335 337 339 341 344 347 349
252 255 256 252 248 250 258 262 263 264 267 269 271 273 275 276 277 279 280 281 282 281 280 281 284 287 289 288 286 286 288 291 293 293 294 295 297 301 304 306 309 311 314 317 319 319 320 320 321 322 325 329 331 332 333 334 336 338 339 342 345 348 350
247 251 253 253 251 252 259 263 264 262 261 264 267 271 273 276 277 277 278 279 279 278 279 280 282 285 287 287 287 287 289 292 293 294 294 295 298 301 304 306 308 311 314 316 318 318 319 320 320 321 325 329 331 332 332 334 336 338 340 342 345 348 350
242 246 249 251 251 252 256 260 263 263 262 263 264 266 268 270 271 272 273 275 276 277 279 279 281 284 285 286 287 288 291 292 294 294 295 296 298 301 304 305 307 310 313 315 317 317 318 319 319 321 324 328 330 331 332 334 336 337 339 342 344 347 349
244 244 245 247 249 250 252 256 260 262 262 262 262 263 265 266 268 270 272 274 276 278 279 281 282 284 285 286 288 289 291 292 293 294 294 294 296 299 302 304 306 310 313 315 315 316 317 317 318 320 324 327 328 329 331 333 335 337 338 340 343 346 348
248 249 249 249 250 251 253 257 260 261 262 262 263 265 266 267 269 270 272 275 277 278 280 282 284 285 286 288 290 290 291 292 292 292 291 292 294 298 301 302 305 308 311 313 314 315 315 315 317 320 323 324 325 327 330 332 334 336 337 338 341 344 346
252 252 253 253 254 255 257 259 261 263 263 262 263 264 265 267 268 270 272 274 276 278 281 283 284 286 289 292 291 290 290 291 290 289 288 290 293 298 300 301 304 308 310 311 312 313 313 313 316 319 321 322 323 325 328 330 332 334 335 336 338 341 344
252 252 253 254 255 257 259 262 264 265 266 265 265 265 266 267 269 270 272 273 276 279 280 282 285 287 290 292 290 287 288 289 289 287 286 288 293 297 300 301 304 308 309 309 310 310 311 312 315 319 320 321 322 324 326 329 330 331 332 333 335 338 342
252 252 252 253 255 258 261 265 267 268 269 269 269 269 269 270 271 272 273 275 277 279 280 283 286 288 291 292 287 285 288 290 289 287 286 288 292 296 299 302 305 307 307 307 307 307 309 311 314 317 318 319 320 322 324 326 327 328 329 331 333 336 340
253 253 254 255 257 260 263 266 268 268 269 269 268 269 269 271 272 273 275 276 277 279 281 285 288 290 293 291 287 286 286 287 287 287 287 289 292 295 299 302 304 305 305 304 305 306 307 309 311 312 315 317 319 320 322 323 324 326 328 330 332 334 337
256 257 258 259 261 263 265 267 268 267 268 267 267 268 268 269 271 272 274 276 277 280 283 287 290 292 292 291 291 290 287 285 287 289 288 288 291 294 298 301 303 303 302 302 303 305 306 306 307 310 313 316 318 319 321 323 324 326 328 329 331 333 336
258 260 260 262 264 265 267 268 268 268 269 268 269 270 269 269 270 272 273 275 277 281 285 288 290 291 291 292 293 292 290 289 289 289 286 287 291 295 298 300 300 300 300 301 302 303 304 304 306 309 312 315 317 319 320 322 324 326 327 328 330 331 334
261 263 264 265 266 266 267 268 269 269 270 270 271 272 272 272 271 271 273 275 277 281 284 287 289 290 292 293 292 291 290 289 287 285 285 288 292 296 298 298 298 298 298 299 301 301 302 304 306 309 312 315 317 319 320 322 324 326 326 328 329 330 331
264 265 266 266 267 267 268 268 269 271 271 271 273 274 274 274 273 273 273 274 276 281 285 287 288 290 292 293 291 286 283 282 282 282 285 289 292 295 295 295 296 296 297 298 299 300 301 303 306 309 311 314 317 319 322 323 325 326 327 327 328 328 329
264 264 265 267 267 268 270 270 270 271 272 273 274 275 275 274 276 278 278 277 279 283 284 285 286 287 289 288 285 280 277 278 280 281 284 287 290 293 293 294 294 294 294 296 297 298 301 303 305 308 311 314 317 320 322 323 324 325 326 326 327 327 327
262 265 268 270 270 271 272 271 271 272 273 273 273 272 274 276 279 282 282 281 281 282 283 283 284 285 286 284 281 279 277 277 277 280 283 287 289 291 292 291 291 291 292 294 296 297 300 302 304 307 310 313 316 319 321 322 323 324 325 326 326 325 325
265 269 272 273 272 271 271 272 273 274 274 274 273 273 274 276 280 282 282 281 280 281 282 283 284 286 285 282 279 278 276 275 276 279 283 285 287 289 289 287 288 289 291 293 294 296 299 301 304 306 309 312 314 316 318 320 321 323 323 324 324 323 324
269 270 271 271 270 269 270 272 274 275 276 277 277 276 275 276 277 280 280 279 280 280 280 281 282 284 283 279 277 276 274 274 276 279 282 284 286 286 284 284 287 289 290 292 294 296 298 300 303 305 308 310 312 313 316 318 320 321 321 321 321 322 322
Height
5811 5811 5810 5810 5810 5810 5811 5811 5811 5812 5813 5814 5815 5815 5815 5816 5816 5817 5817 5817 5817 5817 5817 5817 5817 5817 5817 5818 5818 5819 5819 5819 5819 5818 5818 5817 5817 5817 5816 5816 5815 5814 5812 5811 5810 5808 5808 5807 5805 5803 5802 5800 5797 5795 5793 5791 5788 5785 5783 5780 5777 5774 5772
5809 5808 5807 5807 5808 5808 5808 5809 5810 5810 5811 5812 5813 5813 5813 5814 5814 5814 5814 5814 5815 5815 5815 5815 5815 5815 5815 5816 5816 5816 5817 5817 5817 5816 5816 5816 5816 5815 5815 5814 5813 5812 5810 5809 5808 5806 5805 5803 5802 5801 5799 5797 5795 5792 5790 5787 5785 5782 5780 5777 5775 5772 5770
5806 5805 5806 5806 5806 5806 5806 5807 5808 5808 5808 5809 5810 5810 5810 5811 5812 5812 5812 5812 5813 5813 5813 5813 5813 5813 5813 5814 5814 5814 5815 5815 5815 5815 5815 5815 5814 5814 5813 5812 5811 5810 5809 5807 5806 5804 5803 5801 5799 5798 5796 5795 5792 5790 5787 5784 5781 5779 5777 5775 5773 5771 5768
5803 5804 5805 5804 5804 5804 5804 5804 5805 5806 5806 5807 5807 5808 5808 5809 5809 5810 5810 5810 5811 5811 5811 5811 5811 5811 5811 5811 5812 5813 5813 5813 5813 5813 5813 5813 5812 5812 5811 5810 5809 5808 5807 5806 5804 5802 5800 5799 5797 5795 5794 5792 5789 5787 5784 5782 5779 5776 5774 5772 5770 5767 5764
5801 5802 5802 5801 5801 5802 5802 5802 5802 5803 5803 5804 5805 5805 5805 5806 5807 5807 5808 5808 5809 5809 5809 5809 5809 5809 5809 5810 5811 5811 5812 5812 5812 5812 5812 5811 5811 5810 5809 5808 5807 5806 5805 5804 5802 5800 5798 5797 5795 5793 5791 5788 5786 5783 5781 5778 5776 5774 5771 5768 5766 5762 5758
5800 5799 5799 5799 5799 5800 5800 5799 5800 5801 5801 5802 5802 5802 5803 5804 5804 5805 5806 5806 5806 5806 5807 5807 5807 5808 5808 5809 5809 5810 5810 5810 5810 5810 5810 5809 5809 5808 5807 5806 5805 5804 5803 5801 5799 5798 5796 5795 5793 5790 5787 5785 5782 5780 5778 5775 5773 5771 5768 5764 5761 5758 5754
5797 5797 5797 5797 5797 5798 5797 5797 5798 5799 5799 5799 5799 5800 5801 5802 5802 5803 5804 5804 5804 5805 5805 5806 5806 5806 5807 5808 5808 5808 5809 5809 5809 5808 5808 5808 5807 5806 5805 5804 5803 5802 5800 5799 5797 5796 5794 5792 5790 5787 5784 5782 5779 5777 5775 5773 5769 5767 5764 5761 5757 5754 5751
5795 5795 5795 5795 5795 5795 5795 5795 5796 5796 5797 5797 5797 5798 5799 5800 5800 5801 5801 5802 5803 5803 5804 5804 5805 5805 5806 5806 5807 5807 5807 5807 5807 5807 5806 5806 5805 5804 5803 5802 5801 5799 5798 5796 5795 5794 5792 5789 5786 5784 5781 5779 5777 5775 5772 5770 5767 5763 5760 5757 5753 5750 5747
5793 5793 5794 5793 5793 5793 5793 5793 5793 5793 5794 5795 5795 5796 5797 5797 5798 5798 5799 5800 5800 5801 5802 5802 5803 5804 5804 5805 5805 5805 5806 5805 5805 5805 5804 5803 5803 5802 5801 5799 5798 5797 5796 5794 5793 5791 5789 5786 5783 5781 5778 5776 5774 5772 5769 5767 5764 5760 5757 5754 5750 5747 5743
5791 5791 5791 5791 5791 5791 5791 5791 5791 5791 5792 5793 5793 5794 5795 5795 5796 5796 5797 5797 5798 5799 5800 5801 5802 5802 5803 5803 5804 5804 5804 5804 5803 5802 5802 5801 5800 5799 5798 5797 5796 5795 5793 5792 5790 5788 5785 5783 5780 5778 5776 5774 5771 5769 5767 5764 5761 5757 5754 5751 5748 5743 5739
5789 5789 5789 5788 5789 5789 5789 5789 5789 5789 5790 5791 5792 5792 5793 5794 5794 5794 5795 5795 5796 5797 5798 5799 5800 5801 5802 5802 5802 5802 5802 5801 5801 5800 5800 5799 5798 5797 5796 5795 5794 5792 5791 5789 5787 5785 5782 5780 5778 5776 5773 5771 5769 5766 5764 5761 5758 5755 5752 5748 5745 5741 5737
5787 5786 5786 5786 5786 5787 5787 5788 5788 5788 5788 5789 5790 5791 5791 5792 5792 5792 5793 5794 5795 5796 5797 5798 5799 5800 5800 5800 5800 5800 5800 5799 5799 5798 5797 5796 5796 5795 5794 5792 5791 5790 5788 5786 5784 5782 5779 5777 5775 5773 5771 5769 5766 5764 5761 5759 5756 5753 5750 5746 5742 5738 5734
5785 5785 5785 5784 5785 5786 5786 5786 5786 5787 5787 5788 5789 5790 5790 5790 5790 5791 5792 5793 5794 5795 5796 5797 5798 5798 5799 5799 5798 5798 5798 5797 5796 5796 5795 5794 5793 5792 5791 5790 5789 5788 5786 5784 5781 5779 5776 5774 5772 5770 5768 5766 5763 5761 5758 5756 5753 5750 5747 5744 5740 5736 5732
5784 5783 5783 5783 5784 5785 5785 5785 5785 5786 5787 5787 5788 5788 5788 5788 5789 5790 5791 5792 5793 5794 5795 5796 5797 5797 5797 5797 5796 5796 5796 5795 5794 5794 5793 5792 5791 5790 5789 5788 5787 5785 5783 5781 5778 5776 5774 5772 5770 5767 5765 5763 5760 5758 5755 5753 5750 5747 5743 5740 5738 5734 5730
5782 5782 5782 5783 5783 5784 5784 5784 5784 5785 5786 5786 5786 5786 5786 5787 5788 5789 5790 5791 5792 5793 5794 5794 5795 5795 5795 5795 5794 5794 5793 5793 5792 5792 5791 5790 5789 5788 5787 5785 5784 5782 5780 5778 5776 5773 5771 5769 5767 5764 5762 5760 5757 5755 5752 5750 5747 5744 5740 5737 5735 5731 5727
5781 5781 5781 5782 5783 5783 5783 5783 5783 5784 5784 5785 5785 5785 5786 5786 5787 5788 5789 5790 5791 5792 5792 5793 5793 5793 5793 5793 5792 5792 5791 5791 5790 5789 5789 5788 5787 5786 5784 5783 5781 5779 5777 5775 5773 5771 5769 5766 5764 5762 5760 5757 5754 5752 5749 5747 5744 5741 5738 5735 5732 5729 5725
5780 5781 5781 5782 5782 5782 5782 5782 5782 5783 5783 5783 5784 5785 5785 5786 5787 5787 5788 5789 5790 5791 5791 5791 5791 5791 5791 5791 5790 5790 5789 5789 5788 5787 5786 5785 5784 5783 5782 5780 5778 5777 5774 5772 5770 5768 5766 5764 5762 5759 5757 5754 5752 5749 5747 5744 5741 5738 5736 5733 5730 5726 5722
5780 5780 5780 5781 5781 5781 5781 5781 5781 5782 5782 5783 5784 5784 5785 5786 5786 5787 5788 5788 5789 5789 5789 5789 5789 5789 5789 5789 5788 5788 5787 5787 5786 5785 5784 5783 5782 5781 5779 5778 5776 5774 5772 5770 5768 5765 5763 5761 5759 5757 5755 5752 5750 5747 5744 5741 5739 5736 5733 5730 5727 5724 5720
5779 5779 5779 5780 5780 5780 5780 5780 5781 5781 5781 5782 5783 5784 5785 5785 5786 5786 5787 5787 5787 5788 5788 5788 5788 5788 5787 5787 5786 5786 5785 5784 5783 5783 5782 5781 5779 5778 5776 5775 5773 5771 5769 5767 5765 5763 5761 5759 5757 5755 5752 5750 5747 5745 5742 5739 5736 5733 5731 5727 5724 5721 5717
5778 5778 5778 5779 5779 5779 5779 5780 5780 5780 5781 5782 5783 5783 5784 5784 5785 5785 5785 5786 5786 5786 5786 5786 5786 5785 5785 5785 5784 5783 5782 5782 5781 5780 5779 5778 5777 5775 5774 5772 5770 5768 5766 5764 5762 5760 5758 5756 5754 5752 5750 5747 5745 5742 5739 5736 5734 5731 5728 5725 5721 5718 5714
5776 5777 5777 5778 5778 5778 5778 5779 5779 5780 5780 5781 5781 5782 5782 5783 5783 5783 5783 5784 5784 5784 5784 5784 5783 5783 5782 5782 5781 5781 5780 5779 5778 5777 5776 5775 5774 5772 5771 5769 5768 5766 5764 5762 5760 5758 5756 5754 5752 5750 5747 5745 5742 5740 5737 5734 5731 5728 5725 5722 5719 5715 5712
5775 5775 5776 5777 5777 5778 5778 5778 5778 5779 5779 5779 5780 5780 5781 5781 5781 5781 5781 5782 5782 5782 5782 5781 5781 5780 5780 5779 5779 5778 5777 5776 5775 5774 5773 5772 5771 5770 5768 5767 5765 5763 5761 5759 5757 5755 5753 5751 5749 5747 5745 5743 5740 5737 5735 5732 5729 5726 5723 5720 5716 5713 5710
5774 5774 5775 5776 5776 5777 5777 5777 5777 5777 5778 5778 5778 5779 5779 5779 5779 5779 5779 5779 5779 5779 5779 5778 5778 5778 5777 5776 5775 5775 5774 5773 5772 5771 5770 5769 5768 5767 5765 5764 5762 5760 5758 5756 5754 5752 5750 5748 5747 5745 5742 5740 5738 5735 5732 5729 5727 5724 5721 5717 5714 5711 5708
5773 5773 5774 5774 5775 5775 5776 5776 5776 5776 5776 5776 5777 5777 5778 5778 5777 5777 5777 5777 5777 5776 5776 5776 5775 5774 5774 5773 5772 5771 5770 5770 5769 5768 5767 5766 5765 5763 5762 5761 5759 5757 5756 5754 5752 5750 5748 5746 5744 5742 5740 5738 5735 5733 5730 5727 5724 5722 5719 5716 5712 5709 5706
5771 5772 5773 5773 5774 5774 5774 5774 5774 5774 5774 5775 5775 5776 5776 5775 5775 5775 5774 5774 5774 5774 5773 5773 5772 5771 5771 5770 5769 5768 5767 5766 5765 5764 5763 5762 5761 5760 5759 5757 5756 5754 5753 5751 5749 5747 5745 5744 5742 5739 5737 5735 5733 5730 5728 5725 5723 5720 5717 5714 5711 5707 5704
5770 5770 5771 5771 5772 5772 5772 5772 5772 5772 5773 5773 5773 5773 5773 5773 5772 5772 5772 5771 5771 5771 5770 5769 5769 5768 5767 5766 5765 5765 5764 5763 5762 5760 5759 5759 5758 5757 5755 5754 5753 5751 5750 5748 5746 5744 5743 5741 5739 5737 5735 5733 5731 5728 5726 5723 5720 5718 5715 5712 5709 5705 5702
5768 5768 5769 5769 5770 5770 5770 5770 5770 5770 5770 5771 5771 5771 5770 5770 5769 5769 5768 5768 5768 5767 5767 5766 5765 5764 5764 5763 5762 5761 5760 5759 5758 5756 5756 5755 5754 5753 5752 5751 5750 5748 5746 5745 5743 5742 5740 5738 5736 5734 5732 5730 5728 5726 5723 5721 5718 5716 5713 5711 5707 5704 5700
5765 5765 5766 5767 5767 5767 5767 5767 5767 5768 5768 5768 5767 5767 5767 5766 5766 5765 5765 5764 5764 5764 5763 5762 5762 5761 5760 5760 5759 5758 5757 5755 5753 5752 5752 5752 5751 5750 5749 5748 5746 5745 5743 5742 5741 5739 5738 5736 5734 5732 5730 5728 5726 5723 5721 5718 5716 5713 5711 5708 5705 5702 5698
5761 5762 5763 5763 5764 5764 5764 5764 5764 5764 5764 5764 5764 5764 5763 5763 5762 5762 5761 5761 5760 5760 5759 5759 5759 5758 5757 5756 5755 5754 5753 5751 5749 5748 5749 5748 5748 5747 5746 5744 5743 5742 5741 5739 5738 5737 5735 5733 5731 5730 5728 5725 5723 5721 5718 5716 5713 5710 5708 5705 5702 5699 5696
5758 5759 5760 5760 5761 5761 5761 5761 5761 5761 5761 5761 5760 5760 5759 5759 5758 5758 5758 5757 5757 5756 5756 5756 5755 5754 5754 5752 5751 5750 5748 5746 5745 5746 5746 5745 5744 5743 5742 5741 5740 5739 5738 5736 5735 5734 5733 5731 5729 5727 5725 5722 5720 5718 5715 5712 5710 5707 5705 5702 5700 5697 5693
5755 5756 5757 5758 5758 5758 5758 5758 5758 5757 5757 5757 5757 5756 5756 5755 5754 5754 5754 5754 5753 5753 5753 5752 5752 5751 5750 5749 5747 5746 5745 5744 5743 5743 5742 5741 5741 5740 5739 5738 5737 5736 5734 5733 5732 5731 5730 5728 5726 5724 5722 5719 5717 5714 5712 5709 5707 5704 5702 5700 5697 5694 5691
5753 5753 5754 5755 5755 5754 5754 5754 5754 5754 5754 5754 5753 5753 5752 5751 5751 5750 5750 5750 5750 5750 5749 5749 5748 5747 5746 5745 5743 5742 5742 5741 5741 5740 5739 5738 5737 5736 5735 5734 5733 5732 5731 5730 5729 5728 5727 5725 5723 5721 5719 5716 5714 5711 5708 5706 5704 5701 5699 5697 5694 5691 5688
5749 5750 5751 5751 5751 5750 5750 5750 5750 5750 5750 5750 5749 5748 5748 5747 5747 5746 5746 5746 5746 5746 5746 5745 5744 5743 5742 5741 5740 5739 5738 5738 5737 5736 5736 5735 5734 5733 5732 5731 5730 5729 5728 5727 5726 5725 5724 5722 5720 5718 5715 5713 5710 5708 5705 5703 5701 5698 5696 5694 5691 5688 5686
5746 5746 5747 5747 5747 5747 5747 5747 5747 5747 5746 5746 5746 5745 5744 5743 5743 5743 5743 5742 5742 5742 5742 5741 5740 5740 5738 5737 5736 5735 5735 5734 5734 5733 5732 5731 5731 5730 5729 5728 5727 5726 5725 5724 5723 5722 5720 5719 5717 5714 5712 5709 5707 5705 5702 5700 5698 5695 5693 5691 5688 5686 5683
5742 5743 5743 5744 5743 5743 5743 5743 5743 5743 5742 5742 5742 5742 5741 5740 5740 5740 5740 5739 5739 5738 5738 5737 5737 5736 5735 5734 5733 5732 5732 5731 5730 5730 5729 5728 5727 5726 5725 5724 5723 5722 5721 5721 5720 5718 5717 5715 5713 5711 5708 5706 5704 5702 5699 5697 5695 5692 5690 5688 5685 5683 5680
5739 5739 5740 5740 5740 5740 5740 5739 5739 5739 5739 5738 5738 5738 5737 5737 5737 5737 5736 5736 5735 5734 5734 5733 5733 5732 5731 5731 5730 5729 5728 5727 5727 5726 5725 5724 5724 5723 5722 5721 5720 5719 5718 5717 5716 5715 5713 5711 5709 5707 5705 5703 5701 5698 5696 5694 5692 5689 5687 5685 5683 5680 5677
5736 5736 5736 5736 5736 5736 5736 5736 5735 5735 5735 5734 5734 5734 5734 5734 5733 5733 5733 5732 5731 5731 5730 5730 5729 5728 5728 5727 5726 5726 5725 5724 5723 5723 5722 5721 5720 5720 5718 5717 5716 5715 5714 5713 5712 5711 5709 5708 5706 5703 5701 5699 5697 5695 5693 5690 5688 5686 5684 5682 5679 5677 5674